Wind_Speed
16 12 10 7 9 10 16 21 25 17 8 12 14 20 18 19 21 17 13 22 23 17 14 8 5 6 5 5 3 5 11 15 14 12 11 13 12 14 15 16 17 13 13 11
9 7 4 2 5 12 17 22 21 15 2 11 21 18 19 22 21 21 13 20 18 23 21 17 11 10 5 6 7 6 4 12 15 16 15 14 15 14 16 17 14 14 12 9
8 9 1 8 13 17 18 22 14 12 11 15 21 23 24 22 19 18 16 18 25 25 21 20 17 15 10 4 4 4 5 7 15 16 17 15 16 18 19 16 13 12 11 11
9 7 7 11 18 16 24 10 9 12 11 9 12 13 22 16 16 15 13 15 26 28 25 21 20 22 15 4 2 3 6 4 14 17 15 13 11 14 15 13 11 11 11 12
7 8 15 21 16 16 19 13 8 10 12 14 14 8 19 16 8 9 4 14 18 23 27 21 18 13 19 12 3 2 5 4 12 15 13 11 12 15 15 14 11 10 12 10
15 11 15 15 13 16 19 13 11 14 17 9 11 6 17 8 9 7 3 6 17 27 20 20 23 20 18 19 13 7 4 6 10 15 13 11 13 14 15 13 11 13 12 10
9 14 8 12 18 16 17 13 5 5 4 8 10 9 11 13 12 9 7 4 11 16 23 18 21 25 21 19 17 5 4 6 7 13 16 13 16 15 14 12 11 11 12 10
13 7 6 9 16 26 20 11 6 4 3 12 15 7 11 10 6 6 9 6 7 12 19 15 18 18 21 10 4 5 2 6 7 9 15 17 16 17 16 14 13 12 13 13
8 20 21 21 14 7 10 19 13 12 7 4 5 13 21 9 6 10 12 5 5 8 10 16 17 10 16 18 5 4 5 7 7 9 13 18 18 16 14 14 16 13 14 15
23 25 19 14 11 14 12 9 7 7 1 3 6 10 16 21 6 5 6 10 8 8 10 10 11 11 12 17 6 8 7 9 10 10 13 16 19 16 16 18 17 14 13 12
18 11 23 15 10 8 7 18 15 6 3 5 2 6 15 6 4 3 5 9 6 1 7 9 8 12 13 11 8 4 8 11 9 9 12 15 18 18 18 17 17 16 15 14
12 8 11 8 7 5 3 4 0 2 3 3 3 6 10 3 3 6 6 11 7 10 4 3 7 10 11 12 6 5 10 9 8 8 11 13 17 19 17 15 15 15 14 12
8 7 8 8 6 5 5 4 4 3 3 2 2 3 6 7 5 9 9 11 12 12 4 2 3 4 7 7 4 7 11 10 9 7 8 11 15 15 15 15 15 15 14 12
15 16 14 14 13 10 4 4 6 6 3 3 7 5 6 12 8 6 6 14 14 9 6 6 4 3 8 6 4 11 12 11 11 10 9 11 13 15 15 15 14 12 12 12
15 13 17 17 11 6 10 8 8 11 10 7 7 7 8 10 12 8 10 14 23 16 15 10 7 7 7 8 9 13 17 16 14 12 11 13 13 14 13 12 12 14 14 14
8 6 10 12 6 4 7 9 11 9 5 8 9 11 11 12 17 22 20 16 17 18 10 12 11 9 9 9 11 13 16 17 17 14 12 15 16 15 12 10 7 6 5 5
23 20 16 9 10 12 15 19 13 5 5 8 13 17 12 16 13 16 18 17 17 20 16 14 12 10 10 11 12 14 16 17 17 17 17 16 16 13 11 11 11 9 9 10
30 28 23 17 17 3 14 10 9 10 12 14 16 17 18 15 15 15 11 15 19 22 20 18 16 15 15 14 14 17 19 19 18 19 19 18 18 16 17 17 15 14 17 18
14 22 21 13 17 18 14 14 18 21 21 21 19 17 19 18 18 23 27 25 22 19 23 22 22 17 17 19 18 20 22 21 21 20 19 19 21 19 18 16 18 21 21 22
8 4 18 15 6 6 10 14 14 15 16 19 18 18 18 19 22 21 20 22 23 19 20 24 25 25 28 25 25 25 25 24 24 21 18 19 20 20 21 21 21 20 20 22
7 4 6 12 10 5 4 6 11 10 11 10 10 13 14 12 16 18 23 24 24 18 16 26 31 27 30 36 32 31 30 29 24 24 23 24 22 23 23 23 22 22 23 25
4 3 2 4 4 5 10 10 7 6 8 8 7 12 19 21 16 15 15 20 25 25 25 29 35 29 32 39 33 38 34 33 33 30 31 29 27 27 27 22 23 23 26 27
6 6 6 6 5 11 16 15 15 15 12 11 9 13 18 18 21 22 21 21 23 32 34 32 34 30 34 41 46 38 40 42 36 38 33 32 33 30 26 23 22 21 27 28
18 16 14 14 14 15 18 21 22 22 22 22 22 20 21 25 24 28 30 28 27 30 31 36 37 39 41 42 40 43 45 34 45 43 36 30 29 27 23 22 26 26 26 27
22 23 25 24 24 27 25 22 22 20 21 20 17 18 19 25 28 30 31 31 34 36 41 34 34 35 37 40 42 44 47 49 35 45 41 31 31 25 23 25 28 27 26 27
26 26 26 28 27 30 32 29 30 31 31 30 33 32 31 30 29 28 29 30 28 32 35 33 33 35 37 37 39 47 49 48 38 46 32 30 27 23 26 26 27 26 25 22
Wind_Direction
210 242 235 199 228 273 301 308 311 322 293 261 304 296 280 274 273 279 323 225 226 230 222 220 189 211 268 285 323 346 230 219 222 210 227 228 230 228 224 217 216 192 198 202
223 216 127 222 283 304 308 309 323 332 213 287 294 287 275 283 291 293 273 237 233 224 225 226 227 234 260 264 293 333 317 224 217 224 225 226 224 223 216 210 209 202 201 215
234 143 168 308 314 309 312 308 304 318 295 279 284 282 276 279 287 290 270 237 231 233 226 218 227 241 255 286 315 350 350 234 203 208 217 224 227 209 202 203 204 207 201 205
267 200 284 323 313 310 306 313 313 299 291 273 309 295 315 280 283 289 274 247 227 224 230 225 237 240 251 246 256 13 1 271 209 210 211 221 226 213 196 203 208 209 201 206
232 268 298 296 293 317 312 289 282 306 320 312 312 269 320 313 318 2 330 242 229 230 230 229 229 235 246 239 262 348 360 297 222 213 209 208 195 200 198 202 208 208 196 197
263 277 285 281 284 289 301 281 273 291 299 307 298 277 306 309 333 14 354 260 220 223 233 220 238 244 247 245 250 246 307 319 222 216 212 205 196 197 204 212 213 204 202 211
289 275 275 278 275 268 264 263 276 315 331 239 308 285 305 305 324 325 329 261 225 226 226 220 237 251 238 201 213 243 272 296 245 221 218 207 204 203 205 209 216 223 224 216
296 325 296 308 292 293 262 247 232 207 228 284 305 251 313 340 320 357 358 250 267 238 224 226 227 244 254 253 175 218 255 277 261 229 218 208 206 208 212 222 222 221 217 217
268 292 307 304 329 345 254 242 257 265 287 295 281 293 322 340 308 282 333 299 274 280 236 218 219 213 237 233 217 243 230 264 262 238 222 215 211 212 211 213 214 225 220 225
270 282 316 312 308 303 242 263 221 233 173 295 287 290 297 329 326 301 317 335 310 256 216 208 211 201 211 246 213 243 235 249 253 246 227 219 217 213 208 210 209 223 218 231
244 262 292 317 315 326 259 245 242 277 255 171 245 286 312 326 287 305 310 348 342 106 221 226 213 191 190 216 235 241 243 238 253 246 231 219 216 214 214 212 213 219 226 220
242 249 280 328 104 48 82 105 4 186 175 186 254 279 325 143 238 288 300 348 337 353 31 264 208 186 192 205 225 239 230 227 239 244 233 214 210 210 212 207 208 218 220 217
241 246 242 251 208 77 56 31 30 90 66 196 201 251 248 192 260 268 254 287 308 300 316 187 180 187 190 208 251 217 221 216 215 219 211 201 195 195 193 195 202 208 212 215
264 262 262 260 274 282 281 281 293 296 260 210 237 231 212 228 271 290 317 270 286 335 262 255 256 219 175 221 242 220 224 220 203 197 188 186 185 185 187 186 193 203 213 220
272 259 260 267 274 276 287 277 253 271 281 262 279 252 292 276 241 239 254 252 248 273 254 235 238 219 199 211 231 223 222 216 213 219 208 192 190 181 186 192 205 220 228 231
289 286 271 257 267 262 285 273 256 269 279 294 272 283 302 320 288 256 257 232 247 237 232 228 212 226 234 245 232 230 225 218 216 210 197 195 193 184 183 180 174 176 186 218
285 286 293 290 271 273 271 281 248 242 302 294 273 279 285 295 277 250 246 253 253 237 238 236 211 212 219 232 226 225 217 210 208 199 196 191 188 189 194 211 224 234 240 245
273 274 278 272 283 239 250 232 244 280 300 294 288 276 273 284 227 202 226 247 258 228 239 246 222 215 220 216 216 207 204 203 198 194 194 195 202 210 221 235 245 254 259 262
260 250 251 240 243 256 244 242 265 276 275 276 270 271 291 265 249 242 256 261 255 240 229 245 232 229 233 235 218 209 204 201 201 199 202 211 221 225 232 247 249 255 262 266
336 252 236 243 228 219 252 237 244 260 265 270 282 289 283 262 257 258 256 249 254 243 230 231 225 236 245 236 242 221 219 214 213 214 217 221 232 240 247 256 266 272 274 276
305 280 269 236 238 207 289 269 247 245 256 276 297 275 267 259 267 266 256 250 248 242 232 228 231 243 252 238 238 243 232 230 224 223 231 238 244 250 258 264 266 272 278 282
312 321 284 266 246 222 285 290 266 252 254 272 282 279 266 264 263 244 257 253 254 254 247 239 239 255 250 246 242 244 246 243 237 234 238 244 249 256 259 263 269 277 280 283
264 286 294 270 266 278 286 296 294 293 288 280 270 270 276 267 267 255 264 268 254 241 252 255 254 255 256 248 241 243 243 247 243 238 239 248 250 251 252 263 272 280 281 285
271 278 267 269 270 271 276 287 289 288 288 289 287 281 278 279 275 271 272 262 256 249 256 260 258 254 256 256 252 252 247 245 237 238 238 242 246 243 250 261 269 279 284 287
271 275 280 278 276 280 280 281 278 273 277 271 264 268 264 267 270 270 268 269 266 262 257 260 266 258 262 263 266 250 236 242 244 233 235 238 240 239 250 261 272 280 285 288
280 281 280 281 280 274 276 275 270 270 272 275 279 275 267 269 270 272 273 271 273 273 265 271 274 276 275 283 268 250 242 242 242 223 212 224 230 240 252 263 272 279 285 289
Height
3176 3176 3175 3177 3178 3178 3177 3176 3173 3169 3169 3170 3168 3166 3163 3163 3162 3161 3159 3160 3162 3165 3169 3170 3171 3172 3175 3176 3177 3176 3176 3178 3179 3181 3183 3185 3188 3188 3190 3193 3195 3197 3198 3199
3175 3173 3175 3176 3177 3176 3175 3173 3171 3168 3168 3166 3162 3159 3157 3156 3155 3156 3155 3156 3159 3162 3165 3167 3168 3171 3174 3175 3176 3176 3174 3174 3176 3178 3181 3183 3184 3186 3188 3191 3193 3195 3197 3198
3172 3172 3172 3173 3173 3174 3172 3172 3170 3169 3166 3163 3160 3155 3153 3151 3150 3151 3151 3153 3154 3158 3161 3164 3165 3169 3173 3174 3174 3174 3173 3173 3174 3176 3177 3180 3181 3183 3186 3189 3192 3194 3196 3197
3171 3171 3171 3172 3171 3172 3169 3169 3167 3166 3165 3163 3160 3154 3148 3148 3148 3148 3148 3149 3150 3153 3157 3160 3163 3167 3170 3173 3174 3173 3172 3172 3173 3174 3176 3178 3180 3183 3185 3188 3190 3193 3195 3196
3170 3169 3169 3169 3169 3169 3167 3167 3166 3165 3163 3161 3158 3156 3146 3145 3145 3145 3145 3144 3147 3150 3154 3157 3159 3165 3170 3173 3173 3172 3172 3171 3172 3174 3175 3177 3179 3182 3184 3187 3189 3191 3193 3195
3166 3168 3167 3165 3166 3167 3166 3166 3165 3164 3162 3160 3156 3156 3144 3144 3144 3144 3144 3142 3142 3145 3149 3155 3159 3163 3164 3168 3170 3171 3172 3171 3171 3173 3174 3176 3179 3181 3184 3186 3188 3191 3192 3192
3165 3163 3164 3164 3163 3163 3163 3164 3164 3165 3165 3161 3156 3154 3144 3144 3144 3143 3143 3142 3142 3144 3148 3152 3155 3156 3153 3158 3165 3169 3169 3170 3170 3171 3173 3174 3177 3180 3183 3185 3188 3189 3189 3190
3164 3163 3162 3162 3161 3159 3159 3160 3162 3167 3166 3158 3154 3150 3145 3144 3144 3142 3141 3141 3141 3141 3144 3149 3153 3154 3156 3157 3162 3165 3167 3168 3169 3170 3171 3172 3174 3177 3180 3183 3186 3188 3188 3188
3163 3159 3158 3158 3156 3155 3154 3156 3159 3160 3159 3158 3154 3149 3144 3144 3144 3142 3142 3142 3142 3141 3143 3147 3150 3153 3154 3154 3160 3164 3165 3167 3167 3168 3169 3171 3172 3175 3178 3180 3183 3186 3186 3187
3162 3159 3154 3154 3154 3154 3153 3155 3156 3157 3159 3157 3152 3149 3145 3142 3141 3142 3142 3141 3141 3141 3142 3145 3148 3150 3152 3151 3156 3162 3164 3165 3165 3165 3166 3168 3170 3173 3175 3178 3180 3183 3184 3186
3159 3158 3153 3153 3153 3151 3152 3152 3155 3157 3156 3155 3156 3149 3146 3144 3142 3144 3143 3143 3142 3141 3143 3145 3149 3150 3151 3155 3157 3159 3161 3163 3163 3163 3163 3164 3167 3170 3172 3175 3178 3180 3182 3183
3157 3154 3153 3152 3152 3150 3149 3151 3152 3152 3154 3153 3153 3150 3146 3145 3144 3144 3142 3142 3142 3142 3143 3144 3146 3149 3151 3155 3157 3158 3159 3160 3161 3161 3161 3162 3163 3167 3170 3173 3176 3178 3179 3180
3153 3151 3150 3151 3152 3150 3150 3151 3151 3152 3151 3151 3151 3148 3145 3145 3145 3145 3144 3144 3144 3144 3144 3145 3147 3148 3150 3154 3156 3157 3158 3159 3159 3161 3161 3161 3163 3165 3168 3171 3173 3175 3177 3178
3149 3148 3148 3148 3148 3149 3149 3149 3150 3150 3149 3148 3147 3146 3144 3144 3144 3144 3144 3144 3144 3143 3143 3146 3146 3147 3148 3152 3153 3154 3156 3157 3158 3160 3160 3162 3163 3165 3167 3168 3171 3173 3174 3175
3145 3144 3143 3143 3144 3144 3144 3145 3146 3146 3145 3144 3144 3143 3143 3143 3143 3142 3143 3141 3141 3142 3143 3143 3144 3146 3147 3149 3151 3152 3153 3155 3157 3159 3160 3161 3164 3165 3167 3168 3169 3170 3171 3173
3143 3141 3140 3140 3140 3140 3139 3141 3143 3142 3140 3140 3140 3140 3140 3140 3139 3138 3139 3140 3139 3138 3139 3140 3141 3143 3146 3147 3148 3149 3150 3153 3155 3156 3158 3160 3163 3164 3166 3168 3169 3169 3170 3170
3138 3138 3139 3136 3135 3134 3137 3137 3139 3137 3136 3136 3136 3136 3135 3135 3134 3135 3137 3139 3139 3139 3137 3138 3139 3140 3142 3144 3145 3147 3148 3150 3151 3154 3157 3159 3161 3163 3165 3166 3167 3169 3169 3169
3130 3132 3134 3132 3133 3133 3132 3134 3133 3132 3132 3132 3132 3131 3131 3132 3133 3133 3133 3131 3132 3134 3136 3137 3137 3138 3139 3141 3142 3143 3145 3148 3150 3152 3155 3157 3159 3162 3164 3164 3164 3166 3166 3167
3121 3124 3127 3128 3127 3128 3129 3129 3129 3126 3128 3129 3128 3128 3128 3128 3130 3130 3130 3128 3126 3126 3129 3132 3135 3135 3139 3140 3140 3141 3143 3146 3149 3150 3153 3156 3157 3159 3160 3160 3160 3160 3160 3160
3120 3120 3123 3123 3122 3121 3121 3122 3122 3122 3123 3123 3122 3122 3123 3124 3124 3124 3124 3124 3123 3124 3124 3126 3130 3131 3133 3138 3141 3141 3142 3143 3146 3149 3151 3152 3154 3156 3157 3158 3157 3154 3154 3153
3119 3119 3118 3118 3118 3117 3117 3117 3117 3120 3123 3119 3119 3118 3118 3119 3119 3118 3119 3119 3119 3119 3118 3117 3121 3123 3126 3129 3134 3139 3141 3142 3145 3146 3148 3148 3149 3150 3152 3151 3151 3150 3148 3146
3118 3118 3117 3116 3115 3115 3113 3115 3117 3116 3115 3116 3116 3114 3113 3115 3115 3112 3113 3114 3114 3114 3112 3113 3115 3115 3116 3118 3122 3130 3136 3139 3141 3142 3142 3143 3144 3146 3147 3146 3145 3144 3142 3141
3118 3117 3117 3117 3114 3111 3110 3111 3111 3111 3112 3113 3113 3112 3109 3108 3108 3108 3108 3108 3107 3105 3107 3108 3107 3109 3110 3111 3114 3117 3119 3129 3133 3133 3135 3136 3138 3139 3141 3142 3140 3136 3135 3134
3113 3112 3113 3113 3110 3109 3108 3107 3107 3106 3106 3106 3106 3107 3106 3103 3102 3103 3102 3101 3100 3100 3100 3100 3103 3105 3103 3104 3107 3109 3111 3110 3118 3123 3126 3129 3132 3134 3136 3135 3134 3130 3127 3124
3108 3107 3106 3105 3106 3104 3104 3102 3101 3100 3099 3099 3098 3098 3098 3097 3095 3094 3093 3092 3090 3091 3092 3092 3092 3096 3097 3095 3096 3098 3101 3106 3105 3110 3117 3122 3126 3127 3130 3130 3129 3124 3120 3119
3101 3101 3099 3097 3097 3096 3095 3095 3094 3093 3092 3090 3088 3088 3090 3088 3087 3086 3085 3085 3082 3083 3082 3082 3084 3084 3086 3086 3086 3087 3088 3092 3094 3100 3086 3114 3119 3121 3123 3124 3123 3118 3114 3110